Weather History for Tinker AFB, OK

Change the Weather History Date:

Wednesday, January 22, 2014

  Actual Average Record
Temperature  
Mean Temperature 37 °F -  
Max Temperature 49 °F 47 °F 77 °F (2009)
Min Temperature 25 °F 27 °F 15 °F (2003)
Degree Days  
Heating Degree Days 28    
Moisture  
Dew Point 16 °F    
Average Humidity 44    
Maximum Humidity 60    
Minimum Humidity 33    
Precipitation  
Precipitation 0.00 in - - ()
Sea Level Pressure  
Sea Level Pressure 30.20 in    
Wind  
Wind Speed 10 mph (NE)    
Max Wind Speed 15 mph    
Max Gust Speed 21 mph    
Visibility 10 miles    
Events      
Averages and records for this station are not official NWS values.
T = Trace of Precipitation, MM = Missing Value Source: NWS Daily Summary

Daily Weather History Graph

Daily Weather History Graph

Search for Another Location

Airport:

Trip Planner

Search our weather history database for the weather conditions in past years. The results will help you decide how hot, cold, wet, or windy it might be!

Date:

Astronomy

Jan. 22, 2014 Rise Set
Actual Time 7:35 AM CST 5:47 PM CST
Civil Twilight 7:08 AM CST 6:14 PM CST
Nautical Twilight 6:37 AM CST 6:45 PM CST
Astronomical Twilight 6:06 AM CST 7:15 PM CST
Moon No Moon Rise 10:51 AM CST (1/22)
Length of Visible Light 11h 06m
Length of Day
10h 12m
Waning Gibbous, 65% of the Moon is Illuminated
Jan 22
Waning Gibbous
Jan 23
Last Quarter
Jan 30
New
Feb 6
First Quarter
Feb 14
Full

Hourly Weather History & Observations

Time (CST) Temp. Windchill Dew Point Humidity Pressure Visibility Wind Dir Wind Speed Gust Speed Precip Events Conditions
12:58 AM 26.8 °F 17.7 °F 10.6 °F 51% 30.16 in 10.0 mi South 9.2 mph - N/A   Clear
1:58 AM 25.9 °F 17.4 °F 10.8 °F 53% 30.15 in 10.0 mi South 8.1 mph - N/A   Clear
2:58 AM 27.5 °F 18.0 °F 10.8 °F 49% 30.14 in 10.0 mi South 10.4 mph - N/A   Clear
3:58 AM 26.2 °F 17.8 °F 10.6 °F 52% 30.14 in 10.0 mi South 8.1 mph - N/A   Clear
4:58 AM 25.9 °F 19.2 °F 11.7 °F 55% 30.13 in 10.0 mi SSW 5.8 mph - N/A   Clear
5:58 AM 25.7 °F 21.5 °F 12.7 °F 58% 30.16 in 10.0 mi North 3.5 mph - N/A   Clear
6:58 AM 25.9 °F 20.3 °F 13.5 °F 59% 30.18 in 10.0 mi ENE 4.6 mph - N/A   Clear
7:58 AM 25.5 °F 17.8 °F 13.5 °F 60% 30.23 in 10.0 mi NE 6.9 mph - N/A   Clear
8:58 AM 30.2 °F 21.3 °F 13.3 °F 49% 30.23 in 10.0 mi NNE 10.4 mph - N/A   Clear
9:58 AM 37.6 °F 29.1 °F 14.4 °F 39% 30.25 in 10.0 mi NE 13.8 mph - N/A   Clear
10:58 AM 42.1 °F 35.2 °F 16.0 °F 35% 30.25 in 10.0 mi NNE 12.7 mph - N/A   Clear
11:58 AM 44.6 °F 37.8 °F 19.2 °F 36% 30.22 in 10.0 mi NE 15.0 mph 20.7 mph N/A   Clear
12:58 PM 47.5 °F - 21.2 °F 35% 30.18 in 10.0 mi NNE 15.0 mph - N/A   Clear
1:58 PM 48.0 °F - 20.5 °F 34% 30.16 in 10.0 mi NNE 12.7 mph - N/A   Clear
2:10 PM 48.2 °F - 21.2 °F 34% 30.11 in 10.0 mi ENE 12.7 mph - N/A   Clear
2:58 PM 49.5 °F - 21.6 °F 33% 30.15 in 10.0 mi NNE 13.8 mph - N/A   Clear
3:58 PM 47.5 °F - 21.9 °F 36% 30.16 in 10.0 mi ENE 11.5 mph - N/A   Scattered Clouds
4:58 PM 45.7 °F 39.8 °F 21.7 °F 39% 30.17 in 10.0 mi ENE 12.7 mph - N/A   Scattered Clouds
5:58 PM 42.6 °F 36.8 °F 21.9 °F 44% 30.19 in 10.0 mi NE 10.4 mph - N/A   Mostly Cloudy
6:58 PM 41.0 °F 34.7 °F 20.1 °F 43% 30.22 in 10.0 mi NE 10.4 mph - N/A   Mostly Cloudy
7:58 PM 39.9 °F 33.4 °F 18.0 °F 41% 30.25 in 10.0 mi NE 10.4 mph - N/A   Overcast
8:58 PM 38.1 °F 29.8 °F 16.5 °F 42% 30.26 in 10.0 mi NE 13.8 mph - N/A   Mostly Cloudy
9:58 PM 36.7 °F 28.4 °F 15.8 °F 43% 30.29 in 10.0 mi NE 12.7 mph - N/A   Mostly Cloudy
10:58 PM 35.2 °F 28.8 °F 15.3 °F 44% 30.31 in 10.0 mi ENE 8.1 mph - N/A   Clear
11:58 PM 34.5 °F 26.7 °F 16.0 °F 47% 30.35 in 10.0 mi NE 10.4 mph - N/A   Clear